| time (UTC) | temp C | wind direction | speed KPH | gust KPH | rain 1hr cm | rain 24hr cm | rain mn cm | humidity % | barometer mb |
| 20260506231503 | 21 | 183 | 1.6 | 12.9 | 0.00 | 0.00 | 0.00 | 73 | 1007.5 |
| 20260506231003 | 21 | 200 | 1.6 | 3.2 | 0.00 | 0.00 | 0.00 | 73 | 1007.6 |
| 20260506230504 | 21 | 199 | 1.6 | 4.8 | 0.00 | 0.00 | 0.00 | 72 | 1007.6 |
| 20260506230003 | 21 | 261 | 3.2 | 8.0 | 0.00 | 0.00 | 0.00 | 72 | 1007.5 |
| 20260506225503 | 21 | 234 | 1.6 | 8.0 | 0.00 | 0.00 | 0.00 | 71 | 1007.4 |
| 20260506225004 | 21 | 219 | 4.8 | 14.5 | 0.00 | 0.00 | 0.00 | 71 | 1007.4 |
| 20260506224504 | 21 | 210 | 4.8 | 14.5 | 0.00 | 0.00 | 0.00 | 71 | 1007.4 |
| 20260506224004 | 21 | 249 | 3.2 | 11.3 | 0.00 | 0.00 | 0.00 | 71 | 1007.4 |
| 20260506223504 | 21 | 229 | 1.6 | 4.8 | 0.00 | 0.00 | 0.00 | 72 | 1007.4 |
| 20260506223003 | 21 | 230 | 3.2 | 4.8 | 0.00 | 0.00 | 0.00 | 72 | 1007.5 |
| 20260506222503 | 21 | 222 | 3.2 | 8.0 | 0.00 | 0.00 | 0.00 | 72 | 1007.4 |
| 20260506222004 | 21 | 238 | 4.8 | 14.5 | 0.00 | 0.00 | 0.00 | 71 | 1007.4 |
| 20260506221504 | 21 | 235 | 3.2 | 11.3 | 0.00 | 0.00 | 0.00 | 72 | 1007.4 |
| 20260506221003 | 21 | 244 | 4.8 | 11.3 | 0.00 | 0.00 | 0.00 | 72 | 1007.5 |
| 20260506220503 | 21 | 197 | 3.2 | 9.7 | 0.00 | 0.00 | 0.00 | 71 | 1007.3 |
| 20260506220004 | 21 | 205 | 4.8 | 14.5 | 0.00 | 0.00 | 0.00 | 71 | 1007.3 |
| 20260506215503 | 21 | 249 | 1.6 | 16.1 | 0.00 | 0.00 | 0.00 | 72 | 1007.2 |
| 20260506215003 | 21 | 223 | 3.2 | 16.1 | 0.00 | 0.00 | 0.00 | 72 | 1007.2 |
| 20260506214504 | 21 | 229 | 3.2 | 27.4 | 0.00 | 0.00 | 0.00 | 72 | 1007.1 |
| 20260506214004 | 21 | 197 | 8.0 | 20.9 | 0.00 | 0.00 | 0.00 | 73 | 1007.2 |
| 20260506213503 | 21 | 217 | 4.8 | 19.3 | 0.00 | 0.00 | 0.00 | 73 | 1007.2 |
| 20260506213003 | 21 | 226 | 3.2 | 9.7 | 0.00 | 0.00 | 0.00 | 74 | 1007.1 |
| 20260506212504 | 21 | 204 | 3.2 | 9.7 | 0.00 | 0.00 | 0.00 | 74 | 1006.9 |
| 20260506212003 | 21 | 213 | 3.2 | 9.7 | 0.00 | 0.00 | 0.00 | 74 | 1007.1 |
| 20260506211503 | 21 | 222 | 3.2 | 9.7 | 0.00 | 0.00 | 0.00 | 74 | 1006.9 |
| 20260506211003 | 21 | 193 | 3.2 | 16.1 | 0.00 | 0.00 | 0.00 | 74 | 1007.0 |
| 20260506210503 | 21 | 212 | 6.4 | 19.3 | 0.00 | 0.00 | 0.00 | 74 | 1006.8 |
| 20260506210003 | 20 | 252 | 1.6 | 4.8 | 0.00 | 0.00 | 0.00 | 75 | 1006.9 |
| 20260506205504 | 20 | 182 | 8.0 | 19.3 | 0.00 | 0.00 | 0.00 | 75 | 1006.9 |
| 20260506205004 | 20 | 201 | 3.2 | 20.9 | 0.00 | 0.00 | 0.00 | 75 | 1007.0 |
| 20260506204503 | 20 | 211 | 4.8 | 16.1 | 0.00 | 0.00 | 0.00 | 75 | 1007.0 |
| 20260506204004 | 20 | 235 | 3.2 | 19.3 | 0.00 | 0.00 | 0.00 | 76 | 1006.8 |
| 20260506203503 | 20 | 222 | 4.8 | 19.3 | 0.00 | 0.00 | 0.00 | 75 | 1006.9 |
| 20260506203003 | 20 | 231 | 4.8 | 19.3 | 0.00 | 0.00 | 0.00 | 75 | 1007.1 |
| 20260506202504 | 20 | 230 | 8.0 | 20.9 | 0.00 | 0.00 | 0.00 | 75 | 1007.0 |
| 20260506202004 | 20 | 215 | 4.8 | 25.7 | 0.00 | 0.00 | 0.00 | 75 | 1007.0 |
| 20260506201503 | 20 | 199 | 4.8 | 22.5 | 0.00 | 0.00 | 0.00 | 75 | 1007.2 |
| 20260506201004 | 20 | 199 | 9.7 | 20.9 | 0.00 | 0.00 | 0.00 | 75 | 1007.2 |
| 20260506200504 | 20 | 186 | 4.8 | 16.1 | 0.00 | 0.00 | 0.00 | 76 | 1007.2 |
| 20260506200004 | 20 | 206 | 4.8 | 19.3 | 0.00 | 0.00 | 0.00 | 76 | 1007.3 |
| 20260506195503 | 20 | 202 | 8.0 | 16.1 | 0.00 | 0.00 | 0.00 | 76 | 1007.4 |
| 20260506195003 | 20 | 226 | 6.4 | 22.5 | 0.00 | 0.00 | 0.00 | 76 | 1007.3 |
| 20260506194504 | 20 | 203 | 3.2 | 20.9 | 0.00 | 0.00 | 0.00 | 76 | 1007.3 |
| 20260506194003 | 20 | 209 | 6.4 | 22.5 | 0.00 | 0.00 | 0.00 | 76 | 1007.5 |
| 20260506193503 | 20 | 235 | 3.2 | 33.8 | 0.00 | 0.00 | 0.00 | 76 | 1007.4 |
| 20260506193004 | 20 | 227 | 8.0 | 19.3 | 0.00 | 0.00 | 0.00 | 77 | 1007.6 |
| 20260506192504 | 20 | 224 | 8.0 | 19.3 | 0.00 | 0.00 | 0.00 | 77 | 1007.6 |
| 20260506192003 | 19 | 228 | 4.8 | 12.9 | 0.00 | 0.00 | 0.00 | 78 | 1007.7 |
| 20260506191504 | 19 | 189 | 4.8 | 19.3 | 0.00 | 0.00 | 0.00 | 78 | 1007.6 |
| 20260506191003 | 19 | 206 | 8.0 | 22.5 | 0.00 | 0.00 | 0.00 | 78 | 1007.7 |
| 20260506190504 | 20 | 223 | 8.0 | 24.1 | 0.00 | 0.00 | 0.00 | 77 | 1007.7 |
| 20260506190005 | 20 | 192 | 9.7 | 25.7 | 0.00 | 0.00 | 0.00 | 76 | 1007.8 |
| 20260506185504 | 20 | 204 | 6.4 | 22.5 | 0.00 | 0.00 | 0.00 | 76 | 1007.6 |
| 20260506185003 | 20 | 212 | 8.0 | 16.1 | 0.00 | 0.00 | 0.00 | 76 | 1007.6 |
| 20260506184504 | 20 | 225 | 8.0 | 19.3 | 0.00 | 0.00 | 0.00 | 77 | 1007.7 |
| 20260506184003 | 19 | 207 | 9.7 | 27.4 | 0.00 | 0.00 | 0.00 | 78 | 1007.7 |
| 20260506183503 | 19 | 184 | 9.7 | 27.4 | 0.00 | 0.00 | 0.00 | 80 | 1007.8 |
| 20260506183005 | 18 | 157 | 4.8 | 16.1 | 0.00 | 0.00 | 0.00 | 80 | 1007.7 |
| 20260506182504 | 18 | 173 | 8.0 | 20.9 | 0.00 | 0.00 | 0.00 | 80 | 1007.9 |
| 20260506182003 | 18 | 167 | 4.8 | 12.9 | 0.00 | 0.00 | 0.00 | 80 | 1007.9 |
| 20260506181504 | 18 | 178 | 1.6 | 11.3 | 0.00 | 0.00 | 0.00 | 81 | 1008.0 |
| 20260506181003 | 18 | 176 | 4.8 | 19.3 | 0.00 | 0.00 | 0.00 | 81 | 1008.0 |
| 20260506180503 | 18 | 156 | 4.8 | 12.9 | 0.00 | 0.00 | 0.00 | 80 | 1008.1 |
| 20260506180004 | 18 | 153 | 8.0 | 16.1 | 0.00 | 0.00 | 0.00 | 81 | 1008.2 |
| 20260506175503 | 18 | 164 | 8.0 | 14.5 | 0.00 | 0.00 | 0.00 | 81 | 1008.2 |
| 20260506175003 | 18 | 163 | 6.4 | 16.1 | 0.00 | 0.00 | 0.00 | 82 | 1008.3 |
| 20260506174503 | 18 | 198 | 8.0 | 20.9 | 0.00 | 0.00 | 0.00 | 82 | 1008.3 |
| 20260506174003 | 18 | 145 | 9.7 | 20.9 | 0.00 | 0.00 | 0.00 | 82 | 1008.4 |
| 20260506173503 | 18 | 155 | 11.3 | 22.5 | 0.00 | 0.00 | 0.00 | 82 | 1008.5 |
| 20260506173004 | 18 | 170 | 4.8 | 16.1 | 0.00 | 0.00 | 0.00 | 84 | 1008.4 |
| 20260506172503 | 18 | 141 | 8.0 | 19.3 | 0.00 | 0.00 | 0.00 | 84 | 1008.5 |
| 20260506172004 | 18 | 144 | 9.7 | 22.5 | 0.00 | 0.00 | 0.00 | 84 | 1008.7 |
| 20260506171503 | 18 | 155 | 8.0 | 16.1 | 0.00 | 0.00 | 0.00 | 82 | 1008.7 |
| 20260506171003 | 18 | 145 | 3.2 | 24.1 | 0.00 | 0.00 | 0.00 | 81 | 1008.7 |
| 20260506170503 | 18 | 141 | 9.7 | 16.1 | 0.00 | 0.00 | 0.00 | 81 | 1008.7 |
| 20260506170004 | 18 | 180 | 6.4 | 16.1 | 0.00 | 0.00 | 0.00 | 80 | 1009.5 |
| 20260506165503 | 18 | 136 | 9.7 | 19.3 | 0.00 | 0.00 | 0.00 | 81 | 1009.5 |
| 20260506165004 | 18 | 159 | 4.8 | 14.5 | 0.00 | 0.00 | 0.00 | 82 | 1009.5 |
| 20260506164504 | 18 | 326 | 4.8 | 14.5 | 0.00 | 0.00 | 0.00 | 83 | 1009.6 |
| 20260506164004 | 18 | 177 | 4.8 | 12.9 | 0.00 | 0.00 | 0.00 | 83 | 1009.8 |
| 20260506163503 | 18 | 199 | 8.0 | 14.5 | 0.00 | 0.00 | 0.00 | 83 | 1009.8 |
| 20260506163003 | 18 | 151 | 8.0 | 19.3 | 0.00 | 0.00 | 0.00 | 82 | 1009.9 |
| 20260506162504 | 18 | 354 | 4.8 | 9.7 | 0.00 | 0.00 | 0.00 | 81 | 1009.9 |
| 20260506162003 | 18 | 354 | 4.8 | 16.1 | 0.00 | 0.00 | 0.00 | 81 | 1010.0 |
| 20260506161503 | 18 | 350 | 8.0 | 20.9 | 0.00 | 0.00 | 0.00 | 81 | 1009.9 |
| 20260506161003 | 18 | 342 | 8.0 | 16.1 | 0.00 | 0.00 | 0.00 | 79 | 1009.9 |
| 20260506160504 | 18 | 157 | 9.7 | 20.9 | 0.00 | 0.00 | 0.00 | 78 | 1009.8 |
| 20260506160004 | 18 | 151 | 9.7 | 24.1 | 0.00 | 0.00 | 0.00 | 77 | 1009.8 |
| 20260506155503 | 19 | 175 | 8.0 | 20.9 | 0.00 | 0.00 | 0.00 | 76 | 1009.9 |
| 20260506155004 | 20 | 166 | 8.0 | 20.9 | 0.00 | 0.00 | 0.00 | 75 | 1009.8 |
| 20260506154504 | 20 | 155 | 4.8 | 14.5 | 0.00 | 0.00 | 0.00 | 75 | 1010.0 |
| 20260506154004 | 20 | 143 | 11.3 | 24.1 | 0.00 | 0.00 | 0.00 | 74 | 1009.8 |
| 20260506153503 | 20 | 142 | 9.7 | 19.3 | 0.00 | 0.00 | 0.00 | 75 | 1009.8 |
| 20260506153004 | 19 | 160 | 8.0 | 19.3 | 0.00 | 0.00 | 0.00 | 76 | 1009.8 |
| 20260506152503 | 19 | 142 | 6.4 | 16.1 | 0.00 | 0.00 | 0.00 | 76 | 1009.9 |
| 20260506152004 | 19 | 150 | 9.7 | 19.3 | 0.00 | 0.00 | 0.00 | 76 | 1009.8 |
| 20260506151504 | 20 | 156 | 8.0 | 20.9 | 0.00 | 0.00 | 0.00 | 75 | 1009.9 |
| 20260506151004 | 20 | 143 | 11.3 | 19.3 | 0.00 | 0.00 | 0.00 | 73 | 1010.1 |
| 20260506150504 | 20 | 158 | 6.4 | 20.9 | 0.00 | 0.00 | 0.00 | 72 | 1010.0 |
| 20260506150003 | 21 | 150 | 6.4 | 16.1 | 0.00 | 0.00 | 0.00 | 71 | 1009.9 |
| 20260506145504 | 21 | 154 | 4.8 | 19.3 | 0.00 | 0.00 | 0.00 | 71 | 1009.9 |
| 20260506145003 | 21 | 171 | 8.0 | 14.5 | 0.00 | 0.00 | 0.00 | 70 | 1009.8 |
| 20260506144504 | 21 | 155 | 6.4 | 16.1 | 0.00 | 0.00 | 0.00 | 70 | 1009.8 |
| 20260506144004 | 21 | 164 | 8.0 | 20.9 | 0.00 | 0.00 | 0.00 | 71 | 1009.9 |
| 20260506143504 | 21 | 186 | 8.0 | 14.5 | 0.00 | 0.00 | 0.00 | 71 | 1010.0 |
| 20260506143004 | 21 | 158 | 8.0 | 16.1 | 0.00 | 0.00 | 0.00 | 71 | 1009.9 |
| 20260506142504 | 21 | 157 | 9.7 | 19.3 | 0.00 | 0.00 | 0.00 | 69 | 1009.8 |
| 20260506142004 | 22 | 145 | 8.0 | 19.3 | 0.00 | 0.00 | 0.00 | 64 | 1009.8 |
| 20260506141504 | 22 | 210 | 4.8 | 27.4 | 0.00 | 0.00 | 0.00 | 61 | 1009.8 |
| 20260506141003 | 22 | 190 | 8.0 | 29.0 | 0.00 | 0.00 | 0.00 | 61 | 1009.8 |
| 20260506140504 | 22 | 222 | 9.7 | 22.5 | 0.00 | 0.00 | 0.00 | 61 | 1009.9 |
| 20260506140004 | 23 | 183 | 9.7 | 19.3 | 0.00 | 0.00 | 0.00 | 61 | 1009.8 |
| 20260506135503 | 22 | 170 | 8.0 | 22.5 | 0.00 | 0.00 | 0.00 | 62 | 1009.9 |
| 20260506135003 | 22 | 185 | 12.9 | 32.2 | 0.00 | 0.00 | 0.00 | 62 | 1010.0 |
| 20260506134503 | 22 | 173 | 9.7 | 24.1 | 0.00 | 0.00 | 0.00 | 62 | 1010.2 |
| 20260506134004 | 22 | 209 | 9.7 | 20.9 | 0.00 | 0.00 | 0.00 | 62 | 1010.2 |
| 20260506133503 | 22 | 167 | 6.4 | 19.3 | 0.00 | 0.00 | 0.00 | 63 | 1010.1 |
| 20260506133004 | 22 | 202 | 6.4 | 25.7 | 0.00 | 0.00 | 0.00 | 62 | 1010.1 |
| 20260506132504 | 22 | 204 | 8.0 | 19.3 | 0.00 | 0.00 | 0.00 | 64 | 1010.6 |
| 20260506132003 | 22 | 196 | 8.0 | 22.5 | 0.00 | 0.00 | 0.00 | 64 | 1010.6 |
| 20260506131504 | 22 | 212 | 9.7 | 24.1 | 0.00 | 0.00 | 0.00 | 66 | 1010.5 |
| 20260506131003 | 21 | 219 | 8.0 | 16.1 | 0.00 | 0.00 | 0.00 | 66 | 1010.4 |
| 20260506130503 | 21 | 197 | 9.7 | 24.1 | 0.00 | 0.00 | 0.00 | 68 | 1010.5 |
| 20260506130003 | 21 | 167 | 4.8 | 22.5 | 0.00 | 0.00 | 0.00 | 68 | 1010.5 |
| 20260506125503 | 21 | 218 | 9.7 | 19.3 | 0.00 | 0.00 | 0.00 | 69 | 1010.5 |
| 20260506125003 | 20 | 188 | 8.0 | 20.9 | 0.00 | 0.00 | 0.00 | 71 | 1010.4 |
| 20260506124503 | 19 | 243 | 4.8 | 20.9 | 0.00 | 0.00 | 0.00 | 72 | 1010.4 |
| 20260506124004 | 19 | 195 | 6.4 | 19.3 | 0.00 | 0.00 | 0.00 | 73 | 1010.4 |
| 20260506123503 | 19 | 165 | 6.4 | 19.3 | 0.00 | 0.00 | 0.00 | 73 | 1010.4 |
| 20260506123003 | 19 | 192 | 8.0 | 20.9 | 0.00 | 0.00 | 0.00 | 73 | 1010.5 |
| 20260506122504 | 19 | 188 | 8.0 | 19.3 | 0.00 | 0.00 | 0.00 | 73 | 1010.5 |
| 20260506122003 | 19 | 184 | 4.8 | 14.5 | 0.00 | 0.00 | 0.00 | 74 | 1010.6 |
| 20260506121503 | 18 | 191 | 4.8 | 14.5 | 0.00 | 0.00 | 0.00 | 75 | 1010.5 |
| 20260506121004 | 18 | 187 | 8.0 | 16.1 | 0.00 | 0.00 | 0.00 | 74 | 1010.6 |
| 20260506120503 | 18 | 193 | 8.0 | 16.1 | 0.00 | 0.00 | 0.00 | 74 | 1010.5 |
| 20260506120003 | 18 | 242 | 4.8 | 22.5 | 0.00 | 0.00 | 0.00 | 74 | 1010.5 |
| 20260506115503 | 18 | 186 | 1.6 | 14.5 | 0.00 | 0.00 | 0.00 | 74 | 1010.6 |
| 20260506115004 | 18 | 196 | 9.7 | 24.1 | 0.00 | 0.00 | 0.00 | 75 | 1010.7 |
| 20260506114504 | 18 | 200 | 6.4 | 14.5 | 0.00 | 0.00 | 0.00 | 76 | 1010.8 |
| 20260506114003 | 18 | 185 | 4.8 | 22.5 | 0.00 | 0.00 | 0.00 | 77 | 1010.8 |
| 20260506113503 | 17 | 203 | 4.8 | 22.5 | 0.00 | 0.00 | 0.00 | 77 | 1010.8 |
| 20260506113004 | 17 | 203 | 6.4 | 14.5 | 0.00 | 0.00 | 0.00 | 77 | 1010.8 |
| 20260506112503 | 17 | 223 | 9.7 | 22.5 | 0.00 | 0.00 | 0.00 | 77 | 1010.8 |
| 20260506112003 | 17 | 349 | 8.0 | 19.3 | 0.00 | 0.00 | 0.00 | 77 | 1010.8 |
| 20260506111503 | 17 | 206 | 6.4 | 19.3 | 0.00 | 0.00 | 0.00 | 77 | 1010.7 |
| 20260506111004 | 17 | 217 | 8.0 | 19.3 | 0.00 | 0.00 | 0.00 | 78 | 1010.7 |
| 20260506110504 | 17 | 220 | 6.4 | 25.7 | 0.00 | 0.00 | 0.00 | 79 | 1010.6 |
| 20260506110004 | 17 | 193 | 8.0 | 16.1 | 0.00 | 0.00 | 0.00 | 80 | 1010.6 |
| 20260506105503 | 16 | 197 | 8.0 | 27.4 | 0.00 | 0.00 | 0.00 | 81 | 1010.6 |
| 20260506105003 | 16 | 319 | 6.4 | 14.5 | 0.00 | 0.00 | 0.00 | 81 | 1010.7 |
| 20260506104503 | 16 | 198 | 6.4 | 16.1 | 0.00 | 0.00 | 0.00 | 81 | 1010.6 |
| 20260506104003 | 16 | 194 | 8.0 | 16.1 | 0.00 | 0.00 | 0.00 | 82 | 1010.7 |
| 20260506103504 | 16 | 148 | 6.4 | 16.1 | 0.00 | 0.00 | 0.00 | 82 | 1010.7 |
| 20260506103003 | 16 | 175 | 4.8 | 11.3 | 0.00 | 0.00 | 0.00 | 82 | 1010.6 |
| 20260506102503 | 16 | 180 | 8.0 | 24.1 | 0.00 | 0.00 | 0.00 | 82 | 1010.5 |
| 20260506102004 | 16 | 233 | 6.4 | 14.5 | 0.00 | 0.00 | 0.00 | 82 | 1010.5 |
| 20260506101504 | 16 | 180 | 8.0 | 22.5 | 0.00 | 0.00 | 0.00 | 82 | 1010.6 |
| 20260506101003 | 16 | 189 | 8.0 | 19.3 | 0.00 | 0.00 | 0.00 | 82 | 1010.5 |
| 20260506100503 | 16 | 179 | 9.7 | 24.1 | 0.00 | 0.00 | 0.00 | 82 | 1010.3 |
| 20260506100004 | 16 | 199 | 3.2 | 11.3 | 0.00 | 0.00 | 0.00 | 82 | 1010.5 |
| 20260506095503 | 16 | 190 | 4.8 | 19.3 | 0.00 | 0.00 | 0.00 | 82 | 1010.5 |
| 20260506095003 | 16 | 183 | 6.4 | 16.1 | 0.00 | 0.00 | 0.00 | 82 | 1010.5 |
| 20260506094503 | 16 | 178 | 6.4 | 16.1 | 0.00 | 0.00 | 0.00 | 82 | 1010.6 |
| 20260506094004 | 16 | 193 | 3.2 | 19.3 | 0.00 | 0.00 | 0.00 | 82 | 1010.5 |
| 20260506093504 | 16 | 209 | 4.8 | 14.5 | 0.00 | 0.00 | 0.00 | 82 | 1010.5 |
| 20260506093004 | 16 | 174 | 8.0 | 19.3 | 0.00 | 0.00 | 0.00 | 83 | 1010.5 |
| 20260506092503 | 16 | 183 | 4.8 | 12.9 | 0.00 | 0.00 | 0.00 | 83 | 1010.5 |
| 20260506092004 | 16 | 202 | 8.0 | 20.9 | 0.00 | 0.00 | 0.00 | 83 | 1010.6 |
| 20260506091504 | 16 | 197 | 11.3 | 22.5 | 0.00 | 0.00 | 0.00 | 82 | 1010.6 |
| 20260506091003 | 16 | 176 | 8.0 | 16.1 | 0.00 | 0.00 | 0.00 | 82 | 1010.7 |
| 20260506090503 | 16 | 176 | 4.8 | 12.9 | 0.00 | 0.00 | 0.00 | 82 | 1010.7 |
| 20260506090004 | 16 | 194 | 8.0 | 19.3 | 0.00 | 0.00 | 0.00 | 82 | 1010.8 |
| 20260506085504 | 16 | 190 | 8.0 | 19.3 | 0.00 | 0.00 | 0.00 | 82 | 1010.7 |
| 20260506085004 | 16 | 177 | 11.3 | 22.5 | 0.00 | 0.00 | 0.00 | 82 | 1010.8 |
| 20260506084503 | 16 | 196 | 4.8 | 11.3 | 0.00 | 0.00 | 0.00 | 82 | 1010.7 |
| 20260506084003 | 16 | 202 | 6.4 | 19.3 | 0.00 | 0.00 | 0.00 | 82 | 1010.8 |
| 20260506083503 | 16 | 172 | 6.4 | 19.3 | 0.00 | 0.00 | 0.00 | 81 | 1010.8 |
| 20260506083004 | 16 | 191 | 6.4 | 20.9 | 0.00 | 0.00 | 0.00 | 81 | 1010.8 |
| 20260506082503 | 16 | 184 | 8.0 | 19.3 | 0.00 | 0.00 | 0.00 | 81 | 1010.8 |
| 20260506082004 | 16 | 235 | 6.4 | 20.9 | 0.00 | 0.00 | 0.00 | 81 | 1010.8 |
| 20260506081504 | 16 | 187 | 6.4 | 22.5 | 0.00 | 0.00 | 0.00 | 82 | 1010.8 |
| 20260506081003 | 16 | 176 | 8.0 | 22.5 | 0.00 | 0.00 | 0.00 | 81 | 1010.7 |
| 20260506080504 | 16 | 200 | 4.8 | 14.5 | 0.00 | 0.00 | 0.00 | 81 | 1010.6 |
| 20260506073503 | 17 | 168 | 4.8 | 16.1 | 0.00 | 0.00 | 0.00 | 80 | 1011.0 |
| 20260506073004 | 17 | 168 | 8.0 | 12.9 | 0.00 | 0.00 | 0.00 | 80 | 1011.0 |
| 20260506072504 | 17 | 213 | 6.4 | 14.5 | 0.00 | 0.00 | 0.00 | 80 | 1011.0 |
| 20260506072003 | 17 | 166 | 9.7 | 20.9 | 0.00 | 0.00 | 0.00 | 80 | 1011.1 |
| 20260506071503 | 17 | 186 | 3.2 | 9.7 | 0.00 | 0.00 | 0.00 | 80 | 1011.1 |
| 20260506071003 | 17 | 186 | 8.0 | 14.5 | 0.00 | 0.00 | 0.00 | 79 | 1011.0 |
| 20260506070503 | 17 | 157 | 3.2 | 12.9 | 0.00 | 0.00 | 0.00 | 79 | 1010.9 |
| 20260506062504 | 17 | 181 | 8.0 | 20.9 | 0.00 | 0.00 | 0.00 | 79 | 1011.0 |
| 20260506062004 | 17 | 182 | 6.4 | 16.1 | 0.00 | 0.00 | 0.00 | 79 | 1010.9 |
| 20260506061503 | 17 | 170 | 4.8 | 14.5 | 0.00 | 0.00 | 0.00 | 79 | 1010.9 |
| 20260506061004 | 17 | 183 | 8.0 | 16.1 | 0.00 | 0.00 | 0.00 | 79 | 1010.9 |
| 20260506060503 | 17 | 160 | 3.2 | 16.1 | 0.00 | 0.00 | 0.00 | 79 | 1010.9 |
| 20260506051003 | 17 | 174 | 8.0 | 19.3 | 0.00 | 0.00 | 0.00 | 77 | 1011.4 |
| 20260506050504 | 17 | 179 | 8.0 | 16.1 | 0.00 | 0.00 | 0.00 | 77 | 1011.5 |
| 20260506045004 | 17 | 198 | 8.0 | 19.3 | 0.00 | 0.00 | 0.00 | 76 | 1011.5 |
| 20260506044503 | 17 | 185 | 8.0 | 19.3 | 0.00 | 0.00 | 0.00 | 76 | 1011.5 |
| 20260506044003 | 17 | 165 | 8.0 | 24.1 | 0.00 | 0.00 | 0.00 | 75 | 1011.5 |
| 20260506043503 | 17 | 179 | 8.0 | 19.3 | 0.00 | 0.00 | 0.00 | 75 | 1011.5 |
| 20260506043004 | 18 | 180 | 8.0 | 16.1 | 0.00 | 0.00 | 0.00 | 74 | 1011.5 |
| 20260506042503 | 18 | 157 | 4.8 | 11.3 | 0.00 | 0.00 | 0.00 | 74 | 1011.5 |
| 20260506042003 | 18 | 172 | 4.8 | 16.1 | 0.00 | 0.00 | 0.00 | 74 | 1011.4 |
| 20260506041504 | 18 | 184 | 6.4 | 16.1 | 0.00 | 0.00 | 0.00 | 74 | 1011.4 |
| 20260506041004 | 18 | 239 | 4.8 | 19.3 | 0.00 | 0.00 | 0.00 | 73 | 1011.5 |
| 20260506040503 | 18 | 184 | 4.8 | 14.5 | 0.00 | 0.00 | 0.00 | 73 | 1011.4 |
| 20260506040004 | 18 | 181 | 8.0 | 19.3 | 0.00 | 0.00 | 0.00 | 73 | 1011.3 |
| 20260506035504 | 18 | 180 | 9.7 | 22.5 | 0.00 | 0.00 | 0.00 | 73 | 1011.4 |
| 20260506035004 | 18 | 187 | 4.8 | 16.1 | 0.00 | 0.00 | 0.00 | 73 | 1011.5 |
| 20260506034503 | 18 | 178 | 9.7 | 19.3 | 0.00 | 0.00 | 0.00 | 72 | 1011.5 |
| 20260506034003 | 18 | 164 | 11.3 | 20.9 | 0.00 | 0.00 | 0.00 | 72 | 1011.5 |
| 20260506033503 | 18 | 191 | 8.0 | 20.9 | 0.00 | 0.00 | 0.00 | 72 | 1011.4 |
| 20260506033004 | 18 | 182 | 11.3 | 20.9 | 0.00 | 0.00 | 0.00 | 72 | 1011.4 |
| 20260506032503 | 18 | 201 | 9.7 | 22.5 | 0.00 | 0.00 | 0.00 | 71 | 1011.4 |
| 20260506032003 | 18 | 178 | 9.7 | 20.9 | 0.00 | 0.00 | 0.00 | 71 | 1011.5 |
| 20260506031503 | 18 | 208 | 9.7 | 22.5 | 0.00 | 0.00 | 0.00 | 71 | 1011.5 |
| 20260506031003 | 18 | 179 | 11.3 | 22.5 | 0.00 | 0.00 | 0.00 | 71 | 1011.5 |
| 20260506030503 | 18 | 174 | 8.0 | 24.1 | 0.00 | 0.00 | 0.00 | 70 | 1011.5 |
| 20260506030003 | 19 | 172 | 9.7 | 19.3 | 0.00 | 0.00 | 0.00 | 70 | 1011.5 |
| 20260506025504 | 19 | 168 | 11.3 | 22.5 | 0.00 | 0.00 | 0.00 | 70 | 1011.5 |
| 20260506025004 | 19 | 183 | 9.7 | 27.4 | 0.00 | 0.00 | 0.00 | 70 | 1011.5 |
| 20260506024503 | 19 | 189 | 8.0 | 22.5 | 0.00 | 0.00 | 0.00 | 70 | 1011.5 |
| 20260506024004 | 19 | 189 | 9.7 | 27.4 | 0.00 | 0.00 | 0.00 | 70 | 1011.7 |
| 20260506023503 | 19 | 185 | 9.7 | 22.5 | 0.00 | 0.00 | 0.00 | 70 | 1011.7 |
| 20260506023003 | 19 | 190 | 8.0 | 19.3 | 0.00 | 0.00 | 0.00 | 70 | 1011.6 |
| 20260506022504 | 19 | 213 | 6.4 | 19.3 | 0.00 | 0.00 | 0.00 | 70 | 1011.7 |
| 20260506022004 | 19 | 187 | 11.3 | 27.4 | 0.00 | 0.00 | 0.00 | 69 | 1011.7 |
| 20260506021503 | 19 | 195 | 8.0 | 29.0 | 0.00 | 0.00 | 0.00 | 69 | 1011.8 |
| 20260506021003 | 19 | 183 | 8.0 | 20.9 | 0.00 | 0.00 | 0.00 | 69 | 1011.7 |
| 20260506020504 | 20 | 182 | 11.3 | 22.5 | 0.00 | 0.00 | 0.00 | 69 | 1011.7 |
| 20260506020003 | 20 | 185 | 9.7 | 32.2 | 0.00 | 0.00 | 0.00 | 69 | 1011.6 |
| 20260506015503 | 20 | 180 | 14.5 | 32.2 | 0.00 | 0.00 | 0.00 | 69 | 1011.6 |
| 20260506015003 | 20 | 204 | 8.0 | 27.4 | 0.00 | 0.00 | 0.00 | 68 | 1011.6 |
| 20260506014503 | 20 | 185 | 11.3 | 32.2 | 0.00 | 0.00 | 0.00 | 68 | 1011.7 |
| 20260506014004 | 20 | 191 | 11.3 | 33.8 | 0.00 | 0.00 | 0.00 | 68 | 1011.4 |
| 20260506013503 | 20 | 170 | 6.4 | 29.0 | 0.00 | 0.00 | 0.00 | 67 | 1011.4 |
| 20260506013004 | 20 | 196 | 12.9 | 29.0 | 0.00 | 0.00 | 0.00 | 67 | 1011.2 |
| 20260506012503 | 20 | 177 | 9.7 | 24.1 | 0.00 | 0.00 | 0.00 | 66 | 1011.2 |
| 20260506012004 | 20 | 203 | 12.9 | 33.8 | 0.00 | 0.00 | 0.00 | 65 | 1011.5 |
| 20260506011503 | 20 | 187 | 12.9 | 24.1 | 0.00 | 0.00 | 0.00 | 64 | 1011.2 |
| 20260506011004 | 20 | 193 | 12.9 | 32.2 | 0.00 | 0.00 | 0.00 | 64 | 1011.0 |
| 20260506010504 | 20 | 179 | 12.9 | 27.4 | 0.00 | 0.00 | 0.00 | 63 | 1011.0 |
| 20260506010004 | 20 | 182 | 11.3 | 29.0 | 0.00 | 0.00 | 0.00 | 63 | 1011.1 |
| 20260506005504 | 20 | 185 | 11.3 | 29.0 | 0.00 | 0.00 | 0.00 | 63 | 1010.9 |
| 20260506005003 | 20 | 170 | 14.5 | 32.2 | 0.00 | 0.00 | 0.00 | 63 | 1010.8 |
| 20260506004504 | 20 | 199 | 6.4 | 32.2 | 0.00 | 0.00 | 0.00 | 62 | 1010.8 |
| 20260506004004 | 20 | 183 | 9.7 | 29.0 | 0.00 | 0.00 | 0.00 | 62 | 1010.8 |
| 20260506003503 | 20 | 195 | 8.0 | 32.2 | 0.00 | 0.00 | 0.00 | 62 | 1010.8 |
| 20260506003003 | 20 | 177 | 16.1 | 32.2 | 0.00 | 0.00 | 0.00 | 62 | 1010.8 |
| 20260506002504 | 20 | 181 | 3.2 | 29.0 | 0.00 | 0.00 | 0.00 | 62 | 1010.7 |
| 20260506002004 | 20 | 180 | 11.3 | 27.4 | 0.00 | 0.00 | 0.00 | 61 | 1010.6 |
| 20260506001503 | 20 | 187 | 8.0 | 25.7 | 0.00 | 0.00 | 0.00 | 61 | 1010.7 |
| 20260506001004 | 20 | 184 | 12.9 | 24.1 | 0.00 | 0.00 | 0.00 | 61 | 1010.7 |
| 20260506000503 | 20 | 213 | 12.9 | 27.4 | 0.00 | 0.00 | 0.00 | 61 | 1010.6 |
| 20260506000004 | 21 | 182 | 11.3 | 24.1 | 0.00 | 0.00 | 0.00 | 60 | 1010.5 |
| 20260505235504 | 21 | 193 | 8.0 | 19.3 | 0.00 | 0.00 | 0.00 | 60 | 1010.5 |
| 20260505235003 | 21 | 188 | 8.0 | 24.1 | 0.00 | 0.00 | 0.00 | 60 | 1010.3 |
| 20260505234504 | 21 | 198 | 12.9 | 29.0 | 0.00 | 0.00 | 0.00 | 59 | 1010.4 |
| 20260505234004 | 21 | 166 | 11.3 | 37.0 | 0.00 | 0.00 | 0.00 | 59 | 1010.3 |
| 20260505233504 | 21 | 187 | 11.3 | 25.7 | 0.00 | 0.00 | 0.00 | 59 | 1010.2 |
| 20260505233003 | 21 | 179 | 9.7 | 22.5 | 0.00 | 0.00 | 0.00 | 58 | 1010.1 |
| 20260505232503 | 21 | 194 | 8.0 | 19.3 | 0.00 | 0.00 | 0.00 | 58 | 1010.2 |
| 20260505232004 | 21 | 190 | 9.7 | 24.1 | 0.00 | 0.00 | 0.00 | 58 | 1010.1 |